Weather in Voshchazhnikovo

Russia / Yaroslavl Oblast     57°21′38″N   39°08′22″E
temp.,
°C
wind,
m/s
gust,
m/s
humid.,
%
clouds,
%
prec.,
mm/h
press.,
hPa
HPBL,
m
13 june, sun
sun1300:00+14s229521 0.1 100631
03:00+13sw119599 0.1 100610
06:00+15ssw1292100 0.0 1006109
09:00+19ssw238287 0.8 1006475
12:00+22s346427 1.1 10061372
15:00+22ssw446412 1.6 10061300
18:00+22ssw34756 0.6 1006528
21:00+17sw11844 2.1 100711
14 june, mon
mon1400:00+15ssw22895 0.0 100917
03:00+14sw22915 0.0 101015
06:00+16sw23877 0.0 101196
09:00+21sw34722 0.0 1013534
12:00+25ssw245418 0.0 10131720
15:00+22sse3473100 0.3 101386
18:00+22sw237899 0.4 101399
21:00+20wsw1178100 0.4 101411
15 june, tue
tue1500:00+18nnw228399 0.1 101416
03:00+16nnw119113 0.1 101411
06:00+18nw00870 0.0 101476
09:00+22wsw22725 0.0 1013520
12:00+25wsw456110 0.4 10121431
15:00+25s245755 1.1 10111477
18:00+22sse247797 0.6 100999
21:00+19nw358636 1.1 100973
16 june, wed
wed1600:00+16wnw22895 0.1 100923
03:00+15wnw35907 0.1 100972
06:00+17nw378898 0.0 1010199
09:00+19nnw6769100 0.0 1010601
12:00+20nnw686667 0.0 10121250
15:00+22nw675245 0.0 10122552
18:00+19n610555 0.0 1014552
21:00+14wnw33635 0.0 101641
17 june, thu
thu1700:00+12nw410615 0.0 1018200
03:00+10nw49700 0.0 1021153
06:00+11nw38760 0.0 1022233
09:00+17nnw35600 0.0 1023705
12:00+20nnw45480 0.0 10241723
15:00+21n56450 0.0 10241747
18:00+20n36590 0.0 1025425
21:00+15nw22650 0.0 102511